Date String (YYYY-MM-DD hh:mm:ss) UTC,Instrument flags,Ambient pressure (hPa),Sample flow (lpm),Bypass flow (lpm),Sample temperature (°C),Ambient temperature (°C),ASC tube jacket temperature (°C),LED temperature (°C),Box temperature (°C),Sample RH (%),Span deviation,Mass concentration (μg/m³),Mass concentration (μg/m³),Mass concentration (μg/m³)
DateTimeUTC,F1_M11,P_M11,Q1_M11,Q2_M11,T1_M11,T2_M11,T3_M11,T4_M11,T5_M11,U1_M11,ZSPAN_M11,X0_M11,X2_M11,X1_M11
2022-08-11 07:00:00,,0832.5,4.99,0.00,29.5,28.5,00.0,38.3,31.5,27.9,0000.0,0016.46,0006.30,0004.53
2022-08-11 07:01:00,,0832.5,5.00,0.00,29.6,28.6,00.0,38.3,31.6,27.8,0000.0,0016.88,0006.28,0004.53
2022-08-11 07:02:00,,0832.5,5.00,0.00,29.6,28.6,00.0,38.3,31.6,27.7,0000.0,0017.33,0006.31,0004.53
2022-08-11 07:03:00,,0832.4,4.99,0.00,29.6,28.2,00.0,38.3,31.5,27.7,0000.0,0016.66,0006.28,0004.53
2022-08-11 07:04:00,,0832.4,5.00,0.00,29.6,27.6,00.0,38.3,31.4,27.7,0000.0,0016.10,0006.29,0004.55
2022-08-11 07:05:00,,0832.4,4.99,0.00,29.5,27.5,00.0,38.3,31.3,27.7,0000.0,0015.75,0006.26,0004.55
2022-08-11 07:06:00,,0832.4,5.00,0.00,29.5,27.5,00.0,38.2,31.3,27.7,0000.0,0015.63,0006.20,0004.55
2022-08-11 07:07:00,,0832.4,5.00,0.00,29.4,27.6,00.0,38.2,31.3,27.6,0000.0,0015.85,0006.17,0004.57
2022-08-11 07:08:00,,0832.3,5.00,0.00,29.4,27.7,00.0,38.2,31.3,27.3,0000.0,0015.53,0006.18,0004.58
2022-08-11 07:09:00,,0832.4,5.00,0.00,29.4,27.9,00.0,38.2,31.3,27.4,0000.0,0014.68,0006.21,0004.60
2022-08-11 07:10:00,,0832.3,5.01,0.00,29.4,28.0,00.0,38.2,31.3,27.3,0000.0,0013.48,0006.18,0004.61
2022-08-11 07:11:00,,0832.3,5.00,0.00,29.5,28.1,00.0,38.3,31.4,27.2,0000.0,0013.87,0006.21,0004.61
2022-08-11 07:12:00,,0832.3,4.99,0.00,29.5,28.2,00.0,38.3,31.4,27.3,0000.0,0013.94,0006.27,0004.63
2022-08-11 07:13:00,,0832.3,4.99,0.00,29.5,28.3,00.0,38.3,31.5,27.4,0000.0,0014.24,0006.27,0004.64
2022-08-11 07:14:00,,0832.3,5.00,0.00,29.5,28.4,00.0,38.3,31.5,27.3,0000.0,0014.03,0006.27,0004.65
2022-08-11 07:15:00,,0832.3,4.99,0.00,29.6,28.5,00.0,38.3,31.5,26.8,0000.0,0014.57,0006.29,0004.66
2022-08-11 07:16:00,,0832.3,5.00,0.00,29.6,28.6,00.0,38.3,31.6,26.6,0000.0,0014.37,0006.28,0004.68
2022-08-11 07:17:00,,0832.3,5.00,0.00,29.6,28.6,00.0,38.4,31.6,26.6,0000.0,0014.64,0006.29,0004.69
2022-08-11 07:18:00,,0832.3,4.99,0.00,29.6,28.1,00.0,38.3,31.5,26.3,0000.0,0015.84,0006.37,0004.70
2022-08-11 07:19:00,,0832.3,5.00,0.00,29.6,27.3,00.0,38.3,31.3,26.2,0000.0,0016.52,0006.36,0004.72
2022-08-11 07:20:00,,0832.3,5.01,0.00,29.5,26.9,00.0,38.3,31.2,26.3,0000.0,0017.11,0006.31,0004.72
2022-08-11 07:21:00,,0832.3,5.00,0.00,29.4,26.9,00.0,38.2,31.0,26.5,0000.0,0017.25,0006.35,0004.74
2022-08-11 07:22:00,,0832.2,5.00,0.00,29.3,27.0,00.0,38.2,31.0,26.5,0000.0,0017.02,0006.34,0004.75
2022-08-11 07:23:00,,0832.3,5.00,0.00,29.3,27.1,00.0,38.2,31.1,26.8,0000.0,0017.08,0006.32,0004.74
2022-08-11 07:24:00,,0832.3,5.00,0.00,29.3,27.3,00.0,38.2,31.1,26.9,0000.0,0016.81,0006.31,0004.75
2022-08-11 07:25:00,,0832.3,5.01,0.00,29.3,27.5,00.0,38.2,31.1,26.6,0000.0,0017.14,0006.30,0004.75
2022-08-11 07:26:00,,0832.3,4.99,0.00,29.3,27.7,00.0,38.2,31.2,26.7,0000.0,0016.58,0006.26,0004.74
2022-08-11 07:27:00,,0832.3,5.00,0.00,29.3,27.8,00.0,38.2,31.2,26.7,0000.0,0017.18,0006.27,0004.74
2022-08-11 07:28:00,,0832.2,5.00,0.00,29.3,28.0,00.0,38.2,31.3,26.7,0000.0,0017.01,0006.31,0004.73
2022-08-11 07:29:00,,0832.3,5.00,0.00,29.4,28.1,00.0,38.2,31.3,26.8,0000.0,0015.68,0006.26,0004.72
2022-08-11 07:30:00,,0832.3,5.01,0.00,29.4,28.2,00.0,38.2,31.3,26.5,0000.0,0014.87,0006.23,0004.70
2022-08-11 07:31:00,,0832.2,4.99,0.00,29.4,28.3,00.0,38.2,31.4,26.3,0000.0,0014.79,0006.25,0004.69
2022-08-11 07:32:00,,0832.3,5.00,0.00,29.5,28.4,00.0,38.2,31.4,26.1,0000.0,0015.28,0006.25,0004.68
2022-08-11 07:33:00,,0832.3,5.01,0.00,29.5,28.5,00.0,38.2,31.5,26.1,0000.0,0015.52,0006.31,0004.69
2022-08-11 07:34:00,,0832.3,5.01,0.00,29.5,28.5,00.0,38.3,31.5,26.1,0000.0,0015.55,0006.31,0004.69
2022-08-11 07:35:00,,0832.2,5.00,0.00,29.6,28.6,00.0,38.3,31.6,26.0,0000.0,0015.29,0006.30,0004.69
2022-08-11 07:36:00,,0832.2,5.00,0.00,29.6,28.7,00.0,38.3,31.6,26.1,0000.0,0015.68,0006.34,0004.70
2022-08-11 07:37:00,,0832.2,5.00,0.00,29.6,28.6,00.0,38.3,31.6,25.9,0000.0,0015.66,0006.40,0004.72
2022-08-11 07:38:00,,0832.2,5.00,0.00,29.6,27.9,00.0,38.3,31.4,25.7,0000.0,0015.30,0006.44,0004.73
2022-08-11 07:39:00,,0832.1,5.01,0.00,29.6,27.4,00.0,38.2,31.3,25.6,0000.0,0015.53,0006.40,0004.74
2022-08-11 07:40:00,,0832.1,5.00,0.00,29.5,27.4,00.0,38.2,31.3,25.7,0000.0,0015.58,0006.37,0004.75
2022-08-11 07:41:00,,0832.2,5.01,0.00,29.4,27.4,00.0,38.2,31.2,25.7,0000.0,0016.40,0006.43,0004.77
2022-08-11 07:42:00,,0832.1,4.99,0.00,29.4,27.5,00.0,38.2,31.2,25.8,0000.0,0016.14,0006.44,0004.79
2022-08-11 07:43:00,,0832.1,5.01,0.00,29.4,27.7,00.0,38.2,31.3,25.9,0000.0,0015.14,0006.39,0004.79
2022-08-11 07:44:00,,0832.1,4.99,0.00,29.4,27.8,00.0,38.2,31.3,26.1,0000.0,0014.79,0006.30,0004.79
2022-08-11 07:45:00,,0832.1,5.00,0.00,29.4,28.0,00.0,38.2,31.3,25.9,0000.0,0014.60,0006.27,0004.79
2022-08-11 07:46:00,,0832.1,5.00,0.00,29.4,28.1,00.0,38.2,31.4,25.8,0000.0,0014.34,0006.22,0004.79
2022-08-11 07:47:00,,0832.1,5.00,0.00,29.5,28.2,00.0,38.3,31.4,25.4,0000.0,0013.27,0006.20,0004.79
2022-08-11 07:48:00,,0832.1,5.00,0.00,29.5,28.3,00.0,38.3,31.4,25.4,0000.0,0013.54,0006.17,0004.79
2022-08-11 07:49:00,,0832.1,5.00,0.00,29.5,28.4,00.0,38.3,31.5,25.4,0000.0,0013.80,0006.16,0004.78
2022-08-11 07:50:00,,0832.1,5.00,0.00,29.5,28.5,00.0,38.3,31.5,25.3,0000.0,0013.44,0006.15,0004.78
2022-08-11 07:51:00,,0832.1,5.00,0.00,29.6,28.6,00.0,38.3,31.6,25.3,0000.0,0013.22,0006.13,0004.79
2022-08-11 07:52:00,,0832.1,4.99,0.00,29.6,28.6,00.0,38.3,31.6,25.2,0000.0,0013.21,0006.08,0004.79
2022-08-11 07:53:00,,0832.1,4.99,0.00,29.6,28.7,00.0,38.4,31.6,25.1,0000.0,0013.47,0006.06,0004.78
2022-08-11 07:54:00,,0832.1,5.00,0.00,29.7,28.7,00.0,38.4,31.6,25.0,0000.0,0013.94,0006.16,0004.78
2022-08-11 07:55:00,,0832.1,5.00,0.00,29.6,27.9,00.0,38.3,31.4,25.0,0000.0,0014.74,0006.16,0004.78
2022-08-11 07:56:00,,0832.1,5.00,0.00,29.5,27.1,00.0,38.3,31.2,25.0,0000.0,0015.05,0006.15,0004.78
2022-08-11 07:57:00,,0832.1,4.99,0.00,29.5,26.8,00.0,38.3,31.1,25.0,0000.0,0015.77,0006.22,0004.80
2022-08-11 07:58:00,,0832.1,4.99,0.00,29.4,26.8,00.0,38.2,31.0,25.1,0000.0,0016.38,0006.24,0004.81
2022-08-11 07:59:00,,0832.1,5.01,0.00,29.3,26.9,00.0,38.2,31.0,25.0,0000.0,0016.07,0006.24,0004.81
